EWG2MU LFKB-EDDL

Flight info

Callsign EWG2MU
Flight time 1h 23m
Altitude 34000
Route MEGER2R MEGER DCT ERTEV DCT PUNSA DCT DEVDI DCT SUTAL N852 DIK N853 ELDAR DCT BIKMU BIKMU1A
Aircraft A319/M-SDE3FGHIRWY/LB1

Departure

Time 2026-05-06 17:46
Airport Bastia-Poretta International airport (LFKB)

Arrival

Time 2026-05-06 19:09
Airport Düsseldorf Airport (EDDL)
Time Latitude Longitude Altitude Speed Heading
2026-05-06 17:23 42.54777 9.48173 34 ft 0 kts 253°
2026-05-06 17:39 42.54781 9.48188 35 ft 4 kts 253°
2026-05-06 17:40 42.54788 9.48222 35 ft 4 kts 252°
2026-05-06 17:40 42.54799 9.48256 34 ft 4 kts 234°
2026-05-06 17:40 42.54817 9.48278 34 ft 4 kts 191°
2026-05-06 17:40 42.54831 9.48278 35 ft 1 kts 163°
2026-05-06 17:41 42.54833 9.48277 35 ft 0 kts 163°
2026-05-06 17:42 42.54810 9.48287 32 ft 6 kts 162°
2026-05-06 17:43 42.54769 9.48304 35 ft 7 kts 162°
2026-05-06 17:43 42.54710 9.48329 35 ft 11 kts 162°
2026-05-06 17:43 42.54626 9.48364 35 ft 15 kts 162°
2026-05-06 17:43 42.54512 9.48412 35 ft 19 kts 163°
2026-05-06 17:44 42.54369 9.48433 34 ft 23 kts 163°
2026-05-06 17:44 42.54219 9.48489 35 ft 20 kts 163°
2026-05-06 17:44 42.54125 9.48633 35 ft 24 kts 96°
2026-05-06 17:44 42.54164 9.48760 35 ft 17 kts 44°
2026-05-06 17:45 42.54286 9.48785 33 ft 23 kts 343°
2026-05-06 17:45 42.54595 9.48654 31 ft 78 kts 342°
2026-05-06 17:45 42.55307 9.48357 38 ft 134 kts 343°
2026-05-06 17:45 42.56227 9.47958 535 ft 137 kts 344°
2026-05-06 17:46 42.57129 9.47585 1187 ft 137 kts 354°
2026-05-06 17:46 42.58117 9.47564 1631 ft 148 kts 358°
2026-05-06 17:46 42.59193 9.47481 2050 ft 161 kts 357°
2026-05-06 17:46 42.60359 9.47512 2475 ft 175 kts
2026-05-06 17:47 42.61600 9.47806 2918 ft 187 kts 11°
2026-05-06 17:47 42.62915 9.48186 3389 ft 199 kts 13°
2026-05-06 17:47 42.64304 9.48803 3780 ft 219 kts 20°
2026-05-06 17:47 42.65744 9.49569 4510 ft 226 kts 21°
2026-05-06 17:48 42.67236 9.50373 5201 ft 235 kts 21°
2026-05-06 17:48 42.68779 9.51207 5942 ft 243 kts 21°
2026-05-06 17:48 42.70398 9.52085 6543 ft 258 kts 21°
2026-05-06 17:48 42.72106 9.53014 7199 ft 271 kts 21°
2026-05-06 17:49 42.73918 9.53935 7866 ft 285 kts 15°
2026-05-06 17:49 42.75857 9.54700 8591 ft 296 kts 12°
2026-05-06 17:49 42.77880 9.55347 9432 ft 301 kts 10°
2026-05-06 17:49 42.79952 9.55966 10144 ft 313 kts
2026-05-06 17:50 42.82159 9.56648 10447 ft 337 kts 11°
2026-05-06 17:50 42.84518 9.57428 10683 ft 361 kts 12°
2026-05-06 17:50 42.87005 9.58305 11104 ft 375 kts 13°
2026-05-06 17:50 42.89545 9.59242 11748 ft 381 kts 13°
2026-05-06 17:51 42.92118 9.60210 12426 ft 386 kts 13°
2026-05-06 17:51 42.94764 9.60872 13112 ft 388 kts
2026-05-06 17:51 42.97458 9.60766 13782 ft 388 kts 348°
2026-05-06 17:51 43.00075 9.59902 14386 ft 387 kts 336°
2026-05-06 17:52 43.02499 9.58339 15007 ft 385 kts 324°
2026-05-06 17:52 43.04620 9.56148 15649 ft 382 kts 312°
2026-05-06 17:52 43.06511 9.53592 16293 ft 384 kts 310°
2026-05-06 17:52 43.08420 9.51014 16952 ft 387 kts 310°
2026-05-06 17:53 43.10347 9.48421 17600 ft 390 kts 310°
2026-05-06 17:53 43.12296 9.45804 18253 ft 394 kts 310°
2026-05-06 17:53 43.14259 9.43171 18829 ft 397 kts 310°
2026-05-06 17:53 43.16236 9.40515 19396 ft 399 kts 310°
2026-05-06 17:54 43.18227 9.37835 19945 ft 402 kts 310°
2026-05-06 17:54 43.20229 9.35132 20483 ft 405 kts 309°
2026-05-06 17:54 43.22241 9.32410 21005 ft 408 kts 309°
2026-05-06 17:54 43.24271 9.29663 21502 ft 411 kts 309°
2026-05-06 17:55 43.26309 9.26899 22023 ft 413 kts 309°
2026-05-06 17:55 43.28356 9.24116 22516 ft 416 kts 309°
2026-05-06 17:55 43.30417 9.21309 22983 ft 418 kts 308°
2026-05-06 17:55 43.32534 9.18605 23427 ft 426 kts 314°
2026-05-06 17:56 43.35012 9.16279 23807 ft 437 kts 324°
2026-05-06 17:56 43.37737 9.14343 24178 ft 443 kts 326°
2026-05-06 17:56 43.40489 9.12419 24550 ft 445 kts 326°
2026-05-06 17:56 43.43253 9.10473 24917 ft 448 kts 326°
2026-05-06 17:57 43.46032 9.08504 25294 ft 450 kts 325°
2026-05-06 17:57 43.48824 9.06521 25663 ft 454 kts 325°
2026-05-06 17:57 43.51636 9.04518 26009 ft 457 kts 325°
2026-05-06 17:57 43.54465 9.02500 26354 ft 459 kts 325°
2026-05-06 17:58 43.57316 9.00466 26694 ft 462 kts 325°
2026-05-06 17:58 43.60177 8.98426 27025 ft 465 kts 325°
2026-05-06 17:58 43.63088 8.96440 27346 ft 472 kts 329°
2026-05-06 17:58 43.66224 8.94937 27659 ft 483 kts 338°
2026-05-06 17:59 43.69488 8.93760 27986 ft 486 kts 338°
2026-05-06 17:59 43.72772 8.92569 28267 ft 490 kts 338°
2026-05-06 17:59 43.76075 8.91361 28564 ft 492 kts 338°
2026-05-06 17:59 43.79392 8.90138 28860 ft 494 kts 338°
2026-05-06 18:00 43.82721 8.88906 29179 ft 496 kts 337°
2026-05-06 18:00 43.84929 8.88089 29462 ft 496 kts 337°
2026-05-06 18:00 43.88265 8.86857 29920 ft 495 kts 337°
2026-05-06 18:00 43.91597 8.85627 30278 ft 495 kts 337°
2026-05-06 18:01 43.94930 8.84398 30649 ft 495 kts 337°
2026-05-06 18:01 43.98254 8.83173 31053 ft 494 kts 337°
2026-05-06 18:01 44.01570 8.81949 31458 ft 492 kts 337°
2026-05-06 18:01 44.04877 8.80724 31863 ft 491 kts 337°
2026-05-06 18:02 44.08178 8.79495 32276 ft 490 kts 337°
2026-05-06 18:02 44.11466 8.78269 32736 ft 488 kts 337°
2026-05-06 18:02 44.14738 8.77053 33182 ft 486 kts 337°
2026-05-06 18:02 44.18004 8.75839 33623 ft 485 kts 337°
2026-05-06 18:03 44.21266 8.74621 33828 ft 484 kts 336°
2026-05-06 18:03 44.24471 8.73424 33864 ft 482 kts 336°
2026-05-06 18:03 44.30937 8.70997 33907 ft 481 kts 337°
2026-05-06 18:04 44.37391 8.68585 33888 ft 480 kts 337°
2026-05-06 18:04 44.43840 8.66163 33885 ft 480 kts 336°
2026-05-06 18:05 44.50283 8.63736 33872 ft 480 kts 336°
2026-05-06 18:05 44.56728 8.61305 33849 ft 479 kts 336°
2026-05-06 18:06 44.63172 8.58864 33837 ft 480 kts 336°
2026-05-06 18:06 44.69619 8.56415 33840 ft 480 kts 337°
2026-05-06 18:07 44.76077 8.53966 33828 ft 480 kts 337°
2026-05-06 18:07 44.82524 8.51503 33827 ft 480 kts 336°
2026-05-06 18:08 44.88966 8.49036 33862 ft 480 kts 337°
2026-05-06 18:08 44.95420 8.46574 33836 ft 481 kts 337°
2026-05-06 18:09 45.01877 8.44099 33826 ft 481 kts 337°
2026-05-06 18:09 45.08338 8.41621 33845 ft 481 kts 337°
2026-05-06 18:10 45.14805 8.39121 33837 ft 482 kts 337°
2026-05-06 18:10 45.21276 8.36618 33835 ft 482 kts 337°
2026-05-06 18:11 45.27747 8.34119 33845 ft 482 kts 338°
2026-05-06 18:11 45.34228 8.31611 33829 ft 483 kts 338°
2026-05-06 18:12 45.40672 8.29106 33827 ft 483 kts 338°
2026-05-06 18:12 45.47159 8.26571 33826 ft 483 kts 337°
2026-05-06 18:13 45.53649 8.24024 33837 ft 484 kts 338°
2026-05-06 18:13 45.60153 8.21472 33878 ft 485 kts 338°
2026-05-06 18:14 45.66657 8.18913 33876 ft 485 kts 338°
2026-05-06 18:14 45.73160 8.16355 33902 ft 485 kts 338°
2026-05-06 18:15 45.79654 8.13799 33889 ft 484 kts 338°
2026-05-06 18:15 45.86143 8.11238 33883 ft 484 kts 338°
2026-05-06 18:16 45.92628 8.08656 33881 ft 484 kts 339°
2026-05-06 18:16 45.99119 8.06065 33892 ft 485 kts 339°
2026-05-06 18:17 46.05626 8.03482 33894 ft 485 kts 339°
2026-05-06 18:17 46.12184 8.01122 33899 ft 489 kts 342°
2026-05-06 18:18 46.18899 7.99313 33893 ft 490 kts 345°
2026-05-06 18:18 46.25617 7.97636 33932 ft 490 kts 345°
2026-05-06 18:19 46.32311 7.95804 33940 ft 489 kts 344°
2026-05-06 18:19 46.38980 7.93873 33935 ft 488 kts 344°
2026-05-06 18:20 46.45642 7.91958 33930 ft 488 kts 344°
2026-05-06 18:20 46.52273 7.90085 33929 ft 488 kts 344°
2026-05-06 18:21 46.58979 7.88186 33921 ft 487 kts 344°
2026-05-06 18:21 46.65586 7.86311 33918 ft 486 kts 345°
2026-05-06 18:22 46.72235 7.84415 33924 ft 487 kts 344°
2026-05-06 18:22 46.78883 7.82510 33918 ft 487 kts 344°
2026-05-06 18:23 46.85528 7.80598 33899 ft 487 kts 344°
2026-05-06 18:23 46.92177 7.78685 33918 ft 487 kts 345°
2026-05-06 18:24 46.98828 7.76774 33922 ft 487 kts 345°
2026-05-06 18:24 47.05474 7.74848 33921 ft 487 kts 345°
2026-05-06 18:25 47.12107 7.72918 33921 ft 486 kts 345°
2026-05-06 18:25 47.18743 7.70990 33928 ft 486 kts 345°
2026-05-06 18:26 47.25367 7.69071 33924 ft 485 kts 345°
2026-05-06 18:26 47.31985 7.67143 33926 ft 484 kts 345°
2026-05-06 18:27 47.38596 7.65200 33915 ft 484 kts 345°
2026-05-06 18:27 47.45159 7.63270 33916 ft 484 kts 345°
2026-05-06 18:28 47.51772 7.61325 33908 ft 485 kts 345°
2026-05-06 18:28 47.58384 7.59383 33917 ft 484 kts 345°
2026-05-06 18:29 47.64992 7.57427 33918 ft 483 kts 345°
2026-05-06 18:29 47.71583 7.55468 33946 ft 482 kts 345°
2026-05-06 18:30 47.77841 7.52238 33936 ft 474 kts 333°
2026-05-06 18:30 47.83882 7.48325 33917 ft 473 kts 333°
2026-05-06 18:31 47.89918 7.44417 33903 ft 472 kts 333°
2026-05-06 18:31 47.95944 7.40502 33892 ft 472 kts 333°
2026-05-06 18:32 48.01962 7.36580 33893 ft 472 kts 334°
2026-05-06 18:32 48.07972 7.32655 33896 ft 471 kts 334°
2026-05-06 18:33 48.13937 7.28750 33899 ft 471 kts 334°
2026-05-06 18:33 48.19933 7.24818 33902 ft 470 kts 334°
2026-05-06 18:34 48.25914 7.20883 33910 ft 469 kts 334°
2026-05-06 18:34 48.31883 7.16950 33909 ft 468 kts 334°
2026-05-06 18:35 48.37839 7.13017 33902 ft 467 kts 334°
2026-05-06 18:35 48.43783 7.09071 33892 ft 467 kts 334°
2026-05-06 18:36 48.49725 7.05113 33884 ft 467 kts 334°
2026-05-06 18:36 48.55668 7.01145 33874 ft 467 kts 334°
2026-05-06 18:37 48.60609 6.97839 33870 ft 467 kts 334°
2026-05-06 18:37 48.67560 6.93193 33885 ft 467 kts 335°
2026-05-06 18:38 48.73494 6.89207 33878 ft 466 kts 334°
2026-05-06 18:38 48.79421 6.85205 33874 ft 466 kts 334°
2026-05-06 18:39 48.85345 6.81199 33877 ft 466 kts 334°
2026-05-06 18:40 48.94232 6.75196 33864 ft 466 kts 334°
2026-05-06 18:40 49.00151 6.71180 33861 ft 466 kts 334°
2026-05-06 18:41 49.06066 6.67139 33864 ft 465 kts 334°
2026-05-06 18:41 49.11935 6.63122 33865 ft 465 kts 335°
2026-05-06 18:42 49.17844 6.59067 33864 ft 465 kts 334°
2026-05-06 18:42 49.23764 6.55093 33865 ft 466 kts 340°
2026-05-06 18:43 49.30125 6.53148 33866 ft 466 kts 350°
2026-05-06 18:43 49.36525 6.51524 33859 ft 466 kts 350°
2026-05-06 18:44 49.42929 6.49904 33866 ft 466 kts 350°
2026-05-06 18:44 49.49332 6.48264 33855 ft 466 kts 349°
2026-05-06 18:45 49.55729 6.46634 33856 ft 466 kts 350°
2026-05-06 18:45 49.62126 6.44987 33856 ft 466 kts 349°
2026-05-06 18:46 49.68512 6.43331 33857 ft 465 kts 349°
2026-05-06 18:46 49.74898 6.41678 33862 ft 465 kts 349°
2026-05-06 18:47 49.81276 6.40021 33852 ft 465 kts 349°
2026-05-06 18:47 49.86574 6.38654 33853 ft 464 kts 349°
2026-05-06 18:48 49.92945 6.37005 33873 ft 464 kts 349°
2026-05-06 18:48 49.99305 6.35339 33885 ft 463 kts 349°
2026-05-06 18:49 50.05649 6.33662 33889 ft 462 kts 349°
2026-05-06 18:49 50.11976 6.31998 33885 ft 461 kts 349°
2026-05-06 18:50 50.18298 6.30348 33832 ft 461 kts 349°
2026-05-06 18:50 50.21460 6.29519 33462 ft 460 kts 349°
2026-05-06 18:50 50.24615 6.28689 33102 ft 460 kts 349°
2026-05-06 18:50 50.27770 6.27848 32746 ft 460 kts 349°
2026-05-06 18:51 50.30927 6.27005 32388 ft 461 kts 349°
2026-05-06 18:51 50.34087 6.26164 31778 ft 461 kts 349°
2026-05-06 18:51 50.37249 6.25320 31131 ft 461 kts 349°
2026-05-06 18:51 50.40415 6.24474 30499 ft 463 kts 349°
2026-05-06 18:52 50.43555 6.23634 29877 ft 464 kts 350°
2026-05-06 18:52 50.46741 6.22786 29152 ft 464 kts 350°
2026-05-06 18:52 50.49975 6.21927 28454 ft 467 kts 350°
2026-05-06 18:52 50.53179 6.21080 27898 ft 464 kts 350°
2026-05-06 18:53 50.56314 6.20549 27373 ft 455 kts 358°
2026-05-06 18:53 50.59445 6.20715 26833 ft 447 kts
2026-05-06 18:53 50.62495 6.21442 26317 ft 439 kts
2026-05-06 18:53 50.65484 6.22208 25807 ft 432 kts
2026-05-06 18:54 50.68410 6.23185 25080 ft 430 kts 16°
2026-05-06 18:54 50.71224 6.24808 24237 ft 431 kts 24°
2026-05-06 18:54 50.73867 6.27058 23395 ft 433 kts 32°
2026-05-06 18:54 50.76291 6.29857 22425 ft 430 kts 40°
2026-05-06 18:55 50.78476 6.32991 21488 ft 418 kts 42°
2026-05-06 18:55 50.80588 6.36067 20592 ft 409 kts 42°
2026-05-06 18:55 50.82660 6.39085 19714 ft 401 kts 42°
2026-05-06 18:55 50.84691 6.42050 18861 ft 394 kts 42°
2026-05-06 18:56 50.86688 6.44969 18003 ft 387 kts 41°
2026-05-06 18:56 50.88652 6.47840 17061 ft 380 kts 41°
2026-05-06 18:56 50.90573 6.50658 16210 ft 372 kts 41°
2026-05-06 18:56 50.92448 6.53412 15636 ft 365 kts 41°
2026-05-06 18:57 50.94293 6.56129 15135 ft 359 kts 41°
2026-05-06 18:57 50.96137 6.58884 14626 ft 364 kts 43°
2026-05-06 18:57 50.97918 6.61704 14135 ft 358 kts 43°
2026-05-06 18:57 50.99659 6.64486 13669 ft 353 kts 43°
2026-05-06 18:58 51.01372 6.67229 13137 ft 347 kts 43°
2026-05-06 18:58 51.03049 6.69910 12613 ft 342 kts 43°
2026-05-06 18:58 51.04765 6.72529 12095 ft 336 kts 36°
2026-05-06 18:58 51.06816 6.74176 11591 ft 328 kts 14°
2026-05-06 18:59 51.09061 6.74394 11087 ft 324 kts 352°
2026-05-06 18:59 51.11159 6.73169 10592 ft 321 kts 329°
2026-05-06 18:59 51.12745 6.70723 10108 ft 320 kts 306°
2026-05-06 18:59 51.13567 6.67459 9603 ft 321 kts 282°
2026-05-06 19:00 51.13486 6.63928 9044 ft 320 kts 257°
2026-05-06 19:00 51.12535 6.60805 8525 ft 311 kts 234°
2026-05-06 19:00 51.11069 6.58336 8011 ft 303 kts 224°
2026-05-06 19:00 51.09532 6.56099 7484 ft 296 kts 223°
2026-05-06 19:01 51.08019 6.53938 6987 ft 289 kts 223°
2026-05-06 19:01 51.06531 6.51833 6496 ft 284 kts 223°
2026-05-06 19:01 51.05184 6.49604 6026 ft 276 kts 240°
2026-05-06 19:01 51.04556 6.46808 5604 ft 266 kts 267°
2026-05-06 19:02 51.04816 6.43991 5260 ft 254 kts 297°
2026-05-06 19:02 51.05842 6.41875 5011 ft 241 kts 320°
2026-05-06 19:02 51.07158 6.40329 4752 ft 231 kts 336°
2026-05-06 19:02 51.08691 6.39693 4487 ft 223 kts 358°
2026-05-06 19:03 51.10192 6.40020 4230 ft 222 kts 19°
2026-05-06 19:03 51.11525 6.41229 4052 ft 223 kts 39°
2026-05-06 19:03 51.12541 6.43104 3997 ft 226 kts 51°
2026-05-06 19:03 51.13497 6.45080 3848 ft 225 kts 50°
2026-05-06 19:04 51.14454 6.47056 3707 ft 224 kts 50°
2026-05-06 19:04 51.15419 6.49053 3591 ft 224 kts 50°
2026-05-06 19:04 51.16354 6.50995 3466 ft 216 kts 51°
2026-05-06 19:04 51.17251 6.52856 3329 ft 207 kts 51°
2026-05-06 19:05 51.18100 6.54621 3206 ft 200 kts 51°
2026-05-06 19:05 51.18935 6.56358 3109 ft 189 kts 51°
2026-05-06 19:05 51.19711 6.57972 2905 ft 183 kts 51°
2026-05-06 19:05 51.20477 6.59565 2676 ft 179 kts 51°
2026-05-06 19:06 51.21210 6.61095 2458 ft 168 kts 51°
2026-05-06 19:06 51.21892 6.62532 2217 ft 158 kts 50°
2026-05-06 19:06 51.22549 6.63888 2058 ft 152 kts 50°
2026-05-06 19:06 51.23191 6.65213 1851 ft 151 kts 50°
2026-05-06 19:07 51.23827 6.66551 1605 ft 151 kts 51°
2026-05-06 19:07 51.24455 6.67870 1355 ft 148 kts 49°
2026-05-06 19:07 51.25074 6.69168 1130 ft 145 kts 49°
2026-05-06 19:07 51.25696 6.70459 959 ft 146 kts 50°
2026-05-06 19:08 51.26308 6.71752 781 ft 146 kts 50°
2026-05-06 19:08 51.26926 6.73056 565 ft 148 kts 50°
2026-05-06 19:08 51.27536 6.74324 358 ft 140 kts 50°
2026-05-06 19:08 51.28103 6.75513 157 ft 131 kts 50°
2026-05-06 19:09 51.28593 6.76520 127 ft 95 kts 53°
2026-05-06 19:09 51.28912 6.77191 130 ft 46 kts 52°
2026-05-06 19:09 51.29025 6.77475 129 ft 20 kts 89°
2026-05-06 19:09 51.28972 6.77610 128 ft 8 kts 142°
2026-05-06 19:10 51.28929 6.77661 128 ft 7 kts 144°
2026-05-06 19:10 51.28903 6.77649 130 ft 3 kts 232°
2026-05-06 19:10 51.28886 6.77614 130 ft 5 kts 233°
2026-05-06 19:10 51.28856 6.77551 128 ft 9 kts 233°
2026-05-06 19:11 51.28813 6.77456 130 ft 11 kts 233°
2026-05-06 19:11 51.28761 6.77346 130 ft 13 kts 232°
2026-05-06 19:11 51.28701 6.77220 130 ft 15 kts 233°
2026-05-06 19:11 51.28640 6.77093 128 ft 14 kts 232°
2026-05-06 19:12 51.28583 6.76973 128 ft 13 kts 233°
2026-05-06 19:12 51.28527 6.76856 128 ft 13 kts 232°
2026-05-06 19:12 51.28479 6.76771 127 ft 9 kts 207°
2026-05-06 19:12 51.28442 6.76784 123 ft 0 kts 149°
2026-05-06 19:14 51.28441 6.76785 124 ft 1 kts 149°
2026-05-06 19:14 51.28417 6.76813 123 ft 7 kts 144°
2026-05-06 19:14 51.28370 6.76870 128 ft 6 kts 142°
2026-05-06 19:15 51.28355 6.76896 128 ft 1 kts 123°
2026-05-06 19:15 51.28351 6.76925 129 ft 4 kts 92°
2026-05-06 19:15 51.28376 6.76999 129 ft 11 kts 53°
2026-05-06 19:15 51.28416 6.77083 129 ft 7 kts 53°
2026-05-06 19:16 51.28420 6.77123 127 ft 1 kts 117°
2026-05-06 19:16 51.28416 6.77127 128 ft 3 kts 136°
2026-05-06 19:16 51.28408 6.77136 129 ft 0 kts 143°
2026-05-06 19:16 51.28406 6.77139 129 ft 3 kts 144°
2026-05-06 19:17 51.28386 6.77163 131 ft 2 kts 143°
2026-05-06 19:17 51.28384 6.77166 131 ft 0 kts 143°